Weather History for KBBW - January, 2014

Change the Weather History Date:

Tuesday, January 28, 2014

  Actual Average Record
Temperature  
Mean Temperature 10 °F 26 °F  
Max Temperature 22 °F 38 °F 68 °F (2015)
Min Temperature -3 °F 13 °F -25 °F (1918)
Degree Days  
Heating Degree Days 55 39  
Month to date heating degree days 1120 1099  
Cooling Degree Days 0 0  
Month to date cooling degree days 0 0  
Year to date cooling degree days 0 0  
Moisture  
Dew Point -6 °F    
Average Humidity 53    
Maximum Humidity 72    
Minimum Humidity 33    
Precipitation  
Precipitation 0.00 in 0.03 in 0.12 in (2000)
Sea Level Pressure  
Sea Level Pressure 30.39 in    
Wind  
Wind Speed 6 mph (NW)    
Max Wind Speed 20 mph    
Max Gust Speed 26 mph    
Visibility 10 miles    
Events      
T = Trace of Precipitation, MM = Missing Value Source: NWS Daily Summary

Daily Weather History Graph

Daily Weather History Graph

Search for Another Location

Airport or City:

Trip Planner

Search our weather history database for the weather conditions in past years. The results will help you decide how hot, cold, wet, or windy it might be!

Date:

Astronomy

Jan. 28, 2014 Rise Set
Actual Time 7:53 AM CST 5:49 PM CST
Civil Twilight 7:24 AM CST 6:19 PM CST
Nautical Twilight 6:50 AM CST 6:52 PM CST
Astronomical Twilight 6:18 AM CST 7:25 PM CST
Moon 5:37 AM CST (1/28) 3:41 PM CST (1/28)
Length of Visible Light 10h 55m
Length of Day
9h 55m
Waning Crescent, 7% of the Moon is Illuminated
Jan 28
Waning Crescent
Jan 30
New
Feb 6
First Quarter
Feb 14
Full
Feb 22
Last Quarter

Hourly Weather History & Observations

Time (CST) Temp. Windchill Dew Point Humidity Pressure Visibility Wind Dir Wind Speed Gust Speed Precip Events Conditions
12:53 AM 3.0 °F - -7.1 °F 63% 30.49 in 10.0 mi Calm Calm - N/A   Overcast
1:53 AM 3.9 °F - -7.1 °F 60% 30.46 in 10.0 mi Calm Calm - N/A   Overcast
2:53 AM 6.1 °F - -9.0 °F 50% 30.45 in 10.0 mi Calm Calm - N/A   Overcast
3:53 AM 3.9 °F - -6.0 °F 64% 30.45 in 10.0 mi Calm Calm - N/A   Mostly Cloudy
4:53 AM 1.9 °F - -7.1 °F 66% 30.45 in 10.0 mi Calm Calm - N/A   Mostly Cloudy
5:53 AM -0.0 °F - -8.0 °F 69% 30.48 in 10.0 mi Calm Calm - N/A   Clear
6:53 AM 1.0 °F -12.9 °F -8.0 °F 66% 30.49 in 10.0 mi NW 8.1 mph - N/A   Clear
7:53 AM 3.0 °F -12.5 °F -6.0 °F 66% 30.49 in 10.0 mi NW 10.4 mph - N/A   Clear
8:53 AM 5.0 °F -8.1 °F -4.0 °F 66% 30.50 in 10.0 mi NW 8.1 mph - N/A   Clear
9:53 AM 10.0 °F -3.7 °F -2.0 °F 58% 30.49 in 10.0 mi WNW 10.4 mph - N/A   Clear
10:53 AM 12.9 °F -2.2 °F -2.0 °F 51% 30.48 in 10.0 mi NW 13.8 mph - N/A   Clear
11:53 AM 16.0 °F 1.7 °F -0.0 °F 49% 30.45 in 10.0 mi WNW 13.8 mph - N/A   Clear
12:53 PM 17.1 °F 2.0 °F -2.0 °F 43% 30.41 in 10.0 mi NW 16.1 mph 20.7 mph N/A   Scattered Clouds
1:53 PM 19.9 °F 5.7 °F -2.0 °F 38% 30.36 in 10.0 mi WNW 16.1 mph 21.9 mph N/A   Partly Cloudy
2:53 PM 19.9 °F 6.2 °F -2.9 °F 37% 30.32 in 10.0 mi WNW 15.0 mph 19.6 mph N/A   Clear
3:53 PM 21.9 °F 7.8 °F -4.0 °F 32% 30.30 in 10.0 mi WNW 17.3 mph 24.2 mph N/A   Clear
4:53 PM 21.0 °F 9.3 °F -4.0 °F 33% 30.30 in 10.0 mi NW 11.5 mph - N/A   Clear
5:53 PM 17.1 °F 10.0 °F -6.0 °F 36% 30.30 in 10.0 mi NW 4.6 mph - N/A   Clear
6:53 PM 6.1 °F -0.9 °F -8.0 °F 53% 30.31 in 10.0 mi North 3.5 mph - N/A   Clear
7:53 PM 1.9 °F - -9.0 °F 60% 30.31 in 10.0 mi Calm Calm - N/A   Clear
8:53 PM -0.9 °F - -9.9 °F 66% 30.31 in 10.0 mi Calm Calm - N/A   Clear
9:53 PM -2.0 °F - -9.9 °F 69% 30.29 in 10.0 mi Calm Calm - N/A   Clear
10:53 PM -2.0 °F - -9.9 °F 69% 30.27 in 10.0 mi Calm Calm - N/A   Clear
11:53 PM -0.9 °F - -9.0 °F 69% 30.25 in 10.0 mi Calm Calm - N/A   Clear